Peoria, IL

12:59 PM CST on December 02, 2016 (GMT -0600)
Greater Peoria Regional

Weather History for KPIA - June, 2014

Change the Weather History Date:

Saturday, June 7, 2014

  Actual Average Record
Temperature  
Mean Temperature 71 °F 69 °F  
Max Temperature 80 °F 80 °F 99 °F (1933)
Min Temperature 62 °F 59 °F 42 °F (1910)
Degree Days  
Heating Degree Days 0 1  
Month to date heating degree days 0 10  
Since 1 June heating degree days 0 10  
Since 1 July heating degree days 6586 5823  
Cooling Degree Days 6 5  
Month to date cooling degree days 62 33  
Year to date cooling degree days 220 114  
Since 1 June cooling degree days 62 33  
Growing Degree Days 21 (Base 50)    
Moisture  
Dew Point 61 °F    
Average Humidity 71    
Maximum Humidity 93    
Minimum Humidity 48    
Precipitation  
Precipitation 3.00 in 0.12 in 3.14 in (2015)
Month to date precipitation 4.50 0.84  
Year to date precipitation 16.48 15.17  
Snow  
Snow 0.00 in 0.00 in 0.00 in ()
Month to date snowfall 0.0 0.0  
Since 1 June snowfall 0.0 0.0  
Since 1 July snowfall 57.6 24.6  
Snow Depth 0.00 in    
Sea Level Pressure  
Sea Level Pressure 29.83 in    
Wind  
Wind Speed 9 mph (ENE)    
Max Wind Speed 31 mph    
Max Gust Speed 40 mph    
Visibility 5 miles    
Events Rain    
T = Trace of Precipitation, MM = Missing Value Source: NWS Daily Summary

Daily Weather History Graph

Daily Weather History Graph

Search for Another Location

Airport or City:

Trip Planner

Search our weather history database for the weather conditions in past years. The results will help you decide how hot, cold, wet, or windy it might be!

Date:

Astronomy

Jun. 07, 2014 Rise Set
Actual Time 5:27 AM CDT 8:27 PM CDT
Civil Twilight 4:54 AM CDT 9:00 PM CDT
Nautical Twilight 4:13 AM CDT 9:42 PM CDT
Astronomical Twilight 3:24 AM CDT 10:31 PM CDT
Moon 2:43 PM CDT (6/7) 1:51 AM CDT (6/7)
Length of Visible Light 16h 05m
Length of Day
14h 59m
Waxing Gibbous, 68% of the Moon is Illuminated
Jun 7
Waxing Gibbous
Jun 12
Full
Jun 19
Last Quarter
Jun 27
New
Jul 5
First Quarter

Hourly Weather History & Observations

Time (CDT) Temp. Heat Index Dew Point Humidity Pressure Visibility Wind Dir Wind Speed Gust Speed Precip Events Conditions
12:54 AM 66.9 °F - 60.1 °F 79% 29.94 in 10.0 mi Calm Calm - N/A   Clear
1:54 AM 64.9 °F - 59.0 °F 81% 29.95 in 10.0 mi Calm Calm - N/A   Clear
2:54 AM 64.0 °F - 59.0 °F 84% 29.96 in 10.0 mi ENE 3.5 mph - N/A   Clear
3:54 AM 63.0 °F - 59.0 °F 87% 29.98 in 8.0 mi Calm Calm - N/A   Clear
4:54 AM 63.0 °F - 59.0 °F 87% 29.98 in 9.0 mi Calm Calm - N/A   Clear
5:54 AM 63.0 °F - 57.9 °F 84% 29.99 in 7.0 mi ENE 3.5 mph - N/A   Clear
6:54 AM 69.8 °F - 60.8 °F 73% 29.97 in 9.0 mi Calm Calm - N/A   Clear
7:54 AM 71.6 °F - 59.0 °F 64% 29.97 in 10.0 mi SSE 4.6 mph - N/A   Clear
8:54 AM 75.0 °F - 60.1 °F 60% 29.95 in 10.0 mi SSE 9.2 mph - N/A   Clear
9:54 AM 78.1 °F - 59.0 °F 52% 29.93 in 10.0 mi South 11.5 mph - N/A   Clear
10:54 AM 80.1 °F 80.7 °F 59.0 °F 48% 29.91 in 10.0 mi SE 11.5 mph - N/A   Clear
11:54 AM 79.0 °F - 57.9 °F 48% 29.90 in 10.0 mi SE 11.5 mph - N/A   Clear
12:54 PM 79.0 °F - 57.0 °F 47% 29.86 in 10.0 mi SE 12.7 mph 21.9 mph N/A   Clear
1:54 PM 78.1 °F - 57.9 °F 50% 29.85 in 10.0 mi SE 10.4 mph - N/A   Partly Cloudy
2:54 PM 77.0 °F - 59.0 °F 54% 29.82 in 10.0 mi SE 9.2 mph - 0.00 in Rain Light Rain
3:28 PM 71.1 °F - 63.0 °F 75% 29.83 in 2.5 mi SSE 11.5 mph - 0.07 in Rain Rain
3:35 PM 70.0 °F - 64.0 °F 81% 29.83 in 3.0 mi SE 11.5 mph - 0.08 in Rain Rain
3:45 PM 69.1 °F - 64.0 °F 84% 29.82 in 2.5 mi SE 9.2 mph - 0.11 in Rain Rain
3:54 PM 69.1 °F - 64.9 °F 87% 29.81 in 2.5 mi ESE 10.4 mph 18.4 mph 0.14 in Rain Light Rain
4:02 PM 69.1 °F - 64.9 °F 87% 29.82 in 4.0 mi ESE 11.5 mph - 0.01 in Rain Light Rain
4:29 PM 68.0 °F - 64.0 °F 87% 29.81 in 2.5 mi ESE 10.4 mph - 0.08 in Rain Rain
4:36 PM 68.0 °F - 64.0 °F 87% 29.80 in 4.0 mi ESE 9.2 mph - 0.09 in Rain Rain
4:54 PM 68.0 °F - 64.0 °F 87% 29.78 in 3.0 mi ENE 6.9 mph - 0.14 in Rain Rain
5:54 PM 66.9 °F - 64.0 °F 90% 29.76 in 2.5 mi North 5.8 mph - 0.11 in Rain Rain
6:04 PM 66.9 °F - 64.0 °F 90% 29.77 in 1.5 mi Variable 5.8 mph - 0.09 in Rain Heavy Rain
6:07 PM 66.9 °F - 64.0 °F 90% 29.77 in 1.2 mi NNE 6.9 mph - 0.11 in Rain Heavy Rain
6:09 PM 66.9 °F - 64.0 °F 90% 29.76 in 1.5 mi NNE 10.4 mph - 0.13 in Rain Heavy Rain
6:17 PM 66.9 °F - 64.0 °F 90% 29.76 in 1.8 mi Variable 5.8 mph - 0.19 in Rain Rain
6:30 PM 66.9 °F - 63.0 °F 87% 29.75 in 1.0 mi NE 11.5 mph - 0.34 in Rain Heavy Rain
6:46 PM 66.9 °F - 64.0 °F 90% 29.75 in 1.5 mi NE 10.4 mph 21.9 mph 0.48 in Rain Heavy Rain
6:54 PM 66.9 °F - 64.0 °F 90% 29.74 in 1.5 mi NE 12.7 mph - 0.52 in Rain Heavy Rain
7:04 PM 66.9 °F - 63.0 °F 87% 29.74 in 1.2 mi NE 15.0 mph 21.9 mph 0.09 in Rain Heavy Rain
7:18 PM 66.0 °F - 63.0 °F 90% 29.75 in 1.0 mi NE 12.7 mph 23.0 mph 0.25 in Rain Heavy Rain
7:28 PM 66.0 °F - 63.0 °F 90% 29.75 in 1.2 mi ENE 15.0 mph 21.9 mph 0.38 in Rain Heavy Rain
7:41 PM 66.0 °F - 63.0 °F 90% 29.75 in 1.5 mi NE 16.1 mph 24.2 mph 0.49 in Rain Heavy Rain
7:54 PM 64.9 °F - 62.1 °F 90% 29.74 in 1.8 mi NE 19.6 mph 27.6 mph 0.68 in Rain Heavy Rain
8:03 PM 64.9 °F - 62.1 °F 90% 29.75 in 2.0 mi NE 17.3 mph 27.6 mph 0.07 in Rain Heavy Rain
8:15 PM 64.9 °F - 62.1 °F 90% 29.75 in 1.5 mi NE 18.4 mph 26.5 mph 0.21 in Rain Heavy Rain
8:22 PM 64.9 °F - 62.1 °F 90% 29.76 in 1.5 mi NE 12.7 mph 26.5 mph 0.31 in Rain Heavy Rain
8:38 PM 64.9 °F - 61.0 °F 87% 29.77 in 1.5 mi NE 12.7 mph 24.2 mph 0.52 in Rain Heavy Rain
8:51 PM 64.4 °F - 60.8 °F 88% 29.78 in 1.2 mi NNE 18.4 mph 29.9 mph 0.70 in Rain Heavy Rain
8:54 PM 64.0 °F - 61.0 °F 90% 29.76 in 1.2 mi NNE 16.1 mph 29.9 mph 0.75 in Rain Heavy Rain
8:59 PM 64.0 °F - 61.0 °F 90% 29.78 in 1.8 mi NNE 18.4 mph 29.9 mph 0.01 in Rain Heavy Rain
9:06 PM 64.9 °F - 61.0 °F 87% 29.78 in 2.0 mi NNE 19.6 mph 29.9 mph 0.06 in Rain Heavy Rain
9:12 PM 64.0 °F - 61.0 °F 90% 29.78 in 1.2 mi NNE 17.3 mph 31.1 mph 0.16 in Rain Heavy Rain
9:19 PM 64.0 °F - 61.0 °F 90% 29.78 in 2.0 mi NNE 16.1 mph 31.1 mph 0.21 in Rain Heavy Rain
9:50 PM 64.4 °F - 60.8 °F 88% 29.80 in 1.8 mi NNE 12.7 mph 26.5 mph 0.40 in Rain Heavy Rain
9:54 PM 64.0 °F - 61.0 °F 90% 29.80 in 1.8 mi NNE 13.8 mph 25.3 mph 0.42 in Rain Heavy Rain
10:03 PM 64.0 °F - 61.0 °F 90% 29.81 in 1.8 mi NNE 13.8 mph 23.0 mph 0.09 in Rain Heavy Rain
10:08 PM 64.0 °F - 60.1 °F 87% 29.81 in 2.0 mi NNE 16.1 mph 24.2 mph 0.12 in Rain Heavy Rain
10:20 PM 64.0 °F - 60.1 °F 87% 29.81 in 2.5 mi NNE 16.1 mph 25.3 mph 0.17 in Rain Rain
10:26 PM 64.0 °F - 60.1 °F 87% 29.81 in 4.0 mi North 13.8 mph 24.2 mph 0.18 in Rain Light Rain
10:35 PM 63.0 °F - 60.1 °F 90% 29.81 in 6.0 mi NNE 12.7 mph 24.2 mph 0.18 in Rain Light Rain
10:54 PM 64.0 °F - 59.0 °F 84% 29.76 in 5.0 mi NE 20.7 mph 32.2 mph 0.19 in Rain Light Rain
11:42 PM 63.0 °F - 59.0 °F 87% 29.82 in 10.0 mi North 10.4 mph 20.7 mph 0.05 in Rain Light Rain
11:52 PM 62.6 °F - 59.0 °F 88% 29.80 in 10.0 mi NE 18.4 mph 26.5 mph 0.05 in Rain Light Rain
11:54 PM 63.0 °F - 59.0 °F 87% 29.79 in 10.0 mi NE 19.6 mph 26.5 mph 0.05 in Rain Light Rain